FENGYUN 1C DEB

Satellite information

Favourite Embed

Satellite Type and Status

DEBRISIN ORBIT

Key statistics

Satellite FENGYUN 1C DEB at a glance.

Uptime

9615

Days in orbit

Revolutions

≈ 14.5

Per day

Orbit

SSO

Sun Synchronous Orbit

Inclination

99.0

Latest

Satellite identification and parameters

Extended collection of information and parameters for FENGYUN 1C DEB.

Object identification

Identified? True

Debris? True

Object name: FENGYUN 1C DEB

International designator: 1999-025AFJ

Object number (NORAD): 30447

Object ID (CCSDS): 30447

Country: PEOPLES REPUBLIC OF CHINA (PRC)

Current information (Y/N): Y

RCS size: SMALL

Orbital parameters

Period: 99.045 minutes

Inclination: 98.9801 deg

SMA: 7091.128 km

Apoapsis: 756.905 km

Periapsis: 669.08 km

RAAN: 100.2546 deg

Eccentricy: 0.00619255

Argument of periapsis: 338.2115 deg

Mean anomaly: 173.8529 deg

Mean motion: 14.53884177 rev/day

Mean motion (dot): 0.00018842 rev/day2

B* drag term: 0.0043696773 1/REarth

Two-line elements (TLE)

Creation date: Sept. 3, 2025, 10:15 a.m.

Reference frame: TEME

Reference center: EARTH

Epoch: Sept. 3, 2025, 2:30 a.m. UTC

TLE line 0: 0 FENGYUN 1C DEB

TLE line 1: 1 30447U 99025AFJ 25246.10474369 .00018842 00000-0 43697-2 0 9990

TLE line 2: 2 30447 98.9801 100.2546 0061926 338.2115 173.8529 14.53884177966329

Live tracking on map

Real-time ground track for satellite FENGYUN 1C DEB.

In-orbit conjunctions

A list of the most updated potential collisions computed for object FENGYUN 1C DEB.

Target Orbit TCA Probability of collision Miss distance Type
CZ-2C R/B SSO 2025-04-07 23:09:15 0.0002243568 480.0 (m) ROCKET BODY
CZ-6A DEB LEO 2024-11-15 03:43:05 0.0001739356 624.0 (m) DEBRIS

Associated space launch

Chinese polar orbiting meteorological satellite

FENGYUN 1C DEB was lifted into orbit during the mission ‘Long March 4B | Feng Yun 1C’, on board a Long March 4B space rocket.

The launch took place on May 10, 1999, 1:33 a.m. from Launch Complex 7.

For more information about the launch, click the button.

Launch to space Long March 4B | Feng Yun 1C
Long March 4B | Feng Yun 1C

Agency: N/A

Status: Launch Successful

Launch date: May 10, 1999, 1:33 a.m. UTC

Rocket: Long March 4B

Launch pad: Launch Complex 7

Location: Taiyuan Satellite Launch Center, People's Republic of China

...

Latest news about this satellite

There are no fresh news available about this satellite. Check back as we update our databases every day.


Newsletter sign-up

Weekly statistics, charts and insights to help you stay on top of the space industry.